Погода Ханты-Мансийск

Погода Ханты-Мансийск : погода сейчас, прогноз погоды и архив. Всё, что Вы хотите узнать о погоде Ханты-Мансийск!

Хотите узнать прогноз погоды Ханты-Мансийск? Тогда Вам сюда: Погода Ханты-Мансийск

Поиск расширенной информации на нашем сайте:

Другие новости

Новости СМИ2

Главная страница сайта

Новости сайта

03.07.2017

Напоминаем, что на нашем специализированном сайте Метеоцентр.Азия вы можете получить высокодетализированные автоматические прогнозы погоды по пунктам России, СНГ и мира в авиационном формате (включающие направление и скорость ветра, видимость, явления погоды, количество и форму облачности, нижнюю и верхнюю границу облачности).


Погода Ханты-Мансийск - сегодня

Время (UTC), дата Ветер
(°,м/с) 
Видим.   Явления Облачность Т
(°С)
Тd
(°С)
f(%) Тe
(°С)
Pmin
(гПа)
dP
(гПа)
Po
(мм)
O2
(г/м3)
Тmin Tmax R s Состояние
почвы
09 18.04.18 270 (З) 10 км    8/0 верхняя 
[Ci]
-2.6 -16.7 33 -5  1021.1  -1.2  762  311           
12 18.04.18 220 (ЮЗ) 10 км    10/0 средняя 
[As op]
-1.1 -13 40 -3  1018.5  -2.5  760  308           
18 18.04.18 190 (Ю) 10 км    10/0 средняя 
[As trans]
-3.5 -10.3 59 -6  1013.6  -2.7  756  310           
21 18.04.18 220 (ЮЗ) 10 км    10/0 средняя 
[As trans]
-1.5 -11.2 48 -3  1010.6  -3  754  306           
00 19.04.18 200 (Ю) 10 км    10/0 средняя 
[Ac As]
-1.6 -10.3 51 -4  1007.7  -2.8  752  306           
03 19.04.18 210 (ЮЗ) 10 км    10/0 средняя 
[As trans]
-0.7 -8.8 54 -3  1005.1  -2.6  750  304  -3.5      45  равномерный
сухой снег
100% 
15 19.04.18 тихо ()   10 км  в посл. час снег  10/0 средняя 
[Ac As]
+1.9 -3.2 69 +2  1002.4  0.2  748  300    +5  0.0     
18 19.04.18 тихо ()   4000 м  слаб. снег  10/0 средняя 
[Ac As]
+1.1 -3.1 74 +1  1001.6  -0.8  747  300           
21 19.04.18 190 (Ю) 4000 м  слаб. снег  10/0 средняя 
[Ac As]
+0.2 -0.6 94 +1  999.6  -2  746  300           
03 20.04.18 тихо ()   4000 м  слаб. снег [диам. отлож. мокр. снега 37 мм]  10/10 600 м 
[Ns]
-0.3 -1.3 93 -0  997.3  -0.5  744  300  -0.5    48  равномерный
мокрый или
старый снег
100% 
09 20.04.18 050 (СВ) 10 км    10/3 600 м средняя 
[Sc|Ac As]
+1.5 -8.3 48 +2  999.3  1.4  745  300           
12 20.04.18 280 (З) 10 км    9/0 средняя, верхняя 
[Ac As|Cs]
+1.6 -9.9 42 +2  999.8  0.5  746  300           
18 20.04.18 310 (СЗ) 10 км    9/0 средняя 
[Ac trans]
-3.8 -12.5 51 -5  1001.2  0.6  747  306           
21 20.04.18 320 (СЗ) 10 км    9/0 средняя 
[Ac trans]
-6 -12.9 58 -7  1001.5  0.2  747  309           
00 21.04.18 340 (С) 10 км    ясно 
-9.3 -13.4 72 -9  1002.3  0.8  747  313           
03 21.04.18 030 (СВ) 10 км    ясно 
-5.7 -14.4 50 -5  1003.1  0.9  748  309  -9.5      43  равномерный
сухой снег
100% 
06 21.04.18 170 (Ю) 10 км    ясно 
-2.9 -13.7 43 -4  1003.7  0.7  749  306           
09 21.04.18 270 (З) 10 км    3/0 
[Cu med, cong]
-0.9 -13.5 38 -3  1004.1  0.4  749  304           
12 21.04.18 270 (З) 10 км    5/5 1000 м кучево-дожд. 
[Cb cap]
-1.2 -12.2 43 -2  1004.8  0.7  749  304           
18 21.04.18 тихо ()   10 км    ясно 
-7.5 -13.1 64 -8  1005.5  0.2  750  312           
21 21.04.18 тихо ()   10 км    ясно 
-10.5 -13.1 81 -11  1006  0.4  750  316           
00 22.04.18 тихо ()   10 км    9/0 средняя 
[Ac As]
-10.6 -13.4 80 -11  1006.4  0.4  750  316           
03 22.04.18 тихо ()   10 км    ясно 
-2.2 -12.9 44 -2  1007.2  751  306  -11.5      43  равномерный
сухой снег
100% 
06 22.04.18 200 (Ю) 10 км    3/3 600 м 
[Cu hum]
+0 -12.8 37 +1  1008.2  752  304           
09 22.04.18 170 (Ю) 10 км    6/5 600 м верхняя 
[Cu hum|Ci fib]
+0.4 -12.5 37 1009.2  753  304           
Время (UTC), дата Ветер
(°,м/с) 
Видим.   Явления Облачность Т
(°С)
Тd
(°С)
f(%) Тe
(°С)
Pmin
(гПа)
dP
(гПа)
Po
(мм)
O2
(г/м3)
Тmin Tmax R s Состояние
почвы

Для получения пояснительной информации подведите курсор к названию столбца.

ПОГОДА Ханты-Мансийск - архив

Всё, что Вы хотите узнать о погоде Ханты-Мансийск - удобно и подробно!

Выберите нужную дату (начиная с 1 января 2015* года) и нажмите кнопку "Найти".
Будут отображены архивные сводки погоды по пункту Ханты-Мансийск, начиная с указанной даты.


Отображать данные в формате CSV (для использования в таблицах Excel)


Внимание! Наш архив погоды предназначен исключительно для личного некоммерческого использования в познавательных целях. Если Вам необходимы официальные справки о состоянии погоды (для производственных, юридических, коммерческих и т.п. целей), обращайтесь в органы Росгидромета.

*Примечание: данная дата относится к архиву по метеостанциям СССР (Россия, СНГ, Балтия).
Архив по метеостанциям Зарубежной Европы и Азии (кроме Китая) хранится 10 дней, по другим регионам земного шара (Китай, Африка, Америка, Австралия, Океания) - 1 день.

Ханты-Мансийск - район местоположения метеостанции


Название, широта, долгота, высота метеостанции:
Ханты-Мансийск 61°ш. 69°д. 46 м над ур. моря [Российская Федерация]

Дополнительная информация

В oтличие oт бoльшинства пoгoдных сайтoв мы публикуем пoдрoбную метеoинфoрмацию в детальнoм прoфессиoнальнoм фoрмате.

Характеристики температуры и влажнoсти вoздуха измеряются на высoте 2 м в тени вдали oт зданий и деревьев.
Скoрoсть ветра измеряется на высoте 10 м (на урoвне рoста челoвека скoрoсть ветра ниже в 1.5-2 раза). Если метеoстанция нахoдится в гoрoде или в лесу, тo скoрoсть ветра занижена на 2-4 м/с пo сравнению с oткрытым местoм. Скoрoсть ветра над акватoриями крупных рек и oзёр, а также на вершинах хoлмoв на 2-5 м/с выше, чем в oбычных услoвиях.
Атмoсфернoе давление в разных тoчках местнoсти мoжет значительнo oтличаться oт давления на метеoстанции, в зависимoсти oт услoвий рельефа (при пoдъёме на 10 м давление пoнижается примернo на 1 мм рт.ст.).